DB0MOD Weather Reports


Display with metric or nautical units.
time (UTC)temp
F
wind
direction
speed
MPH
gust
MPH
rain 1hr
in
rain 24hr
in
rain mn
in
humidity
%
barometer
mb
20260507113857 56 247 0.0 0.0 0.00 0.00 0.00 10 1013.0
20260507113357 55 247 0.0 0.0 0.00 0.00 0.00 10 1013.0
20260507112857 55 225 0.0 0.0 0.00 0.00 0.00 10 1013.1
20260507112357 55 247 0.0 0.0 0.00 0.00 0.00 10 1013.1
20260507111857 54 247 0.0 0.0 0.00 0.00 0.00 10 1013.0
20260507111357 54 225 0.0 0.0 0.00 0.00 0.00 10 1013.1
20260507110857 54 225 0.0 0.0 0.00 0.00 0.00 10 1013.1
20260507110357 54 247 0.0 0.0 0.00 0.00 0.00 10 1013.0
20260507105857 54 247 0.0 0.0 0.00 0.00 0.00 10 1013.1
20260507105357 53 247 0.0 0.0 0.00 0.00 0.00 10 1013.1
20260507104857 53 315 0.0 0.0 0.00 0.00 0.00 10 1013.2
20260507104357 52 270 0.0 0.0 0.00 0.00 0.00 10 1013.2
20260507103857 51 247 0.0 0.0 0.00 0.00 0.00 10 1013.3
20260507103357 51 247 0.0 0.0 0.00 0.00 0.00 10 1013.2
20260507102857 51 247 0.0 0.0 0.00 0.00 0.00 10 1013.3
20260507102357 50 270 0.0 0.0 0.00 0.00 0.00 10 1013.4
20260507101857 49 247 0.0 0.0 0.00 0.00 0.00 10 1013.3
20260507101357 48 225 0.0 0.0 0.00 0.00 0.00 10 1013.4
20260507100857 49 247 0.0 0.0 0.00 0.00 0.00 10 1013.4
20260507100357 49 225 0.0 0.0 0.00 0.00 0.00 10 1013.5
20260507095857 49 247 0.0 0.0 0.00 0.00 0.00 10 1013.2
20260507095357 49 247 0.0 0.0 0.00 0.00 0.00 10 1013.3
20260507094857 50 225 0.0 0.0 0.00 0.00 0.00 10 1013.3
20260507094357 50 270 0.0 0.0 0.00 0.00 0.00 10 1013.2
20260507093857 48 270 0.0 0.0 0.00 0.00 0.00 10 1013.2
20260507093357 46 247 0.0 0.0 0.00 0.00 0.00 10 1013.0
20260507092857 46 247 0.0 0.0 0.00 0.00 0.00 10 1013.1
20260507092357 46 247 0.0 0.0 0.00 0.00 0.00 10 1013.0
20260507091857 46 202 0.0 0.0 0.00 0.00 0.00 10 1012.9
20260507090857 46 247 0.0 0.0 0.00 0.00 0.00 10 1013.0
20260507090358 46 247 0.0 0.0 0.00 0.00 0.00 10 1013.0
20260507085857 46 247 0.0 0.0 0.00 0.00 0.00 10 1012.9
20260507085357 45 225 0.0 0.0 0.00 0.00 0.00 10 1012.9
20260507084857 44 247 0.0 0.0 0.00 0.00 0.00 10 1013.1
20260507084358 44 247 0.0 0.0 0.00 0.00 0.00 10 1012.9
20260507083858 44 247 0.0 0.0 0.00 0.00 0.00 10 1012.9
20260507083357 43 247 0.0 0.0 0.00 0.00 0.00 10 1012.8
20260507082858 43 247 0.0 0.0 0.00 0.00 0.00 10 1012.7
20260507082358 43 270 0.0 0.0 0.00 0.00 0.00 10 1012.9
20260507081859 43 247 0.0 0.0 0.00 0.00 0.00 10 1012.7
20260507081358 42 247 0.0 0.0 0.00 0.00 0.00 10 1012.6
20260507080858 42 270 0.0 0.0 0.00 0.00 0.00 10 1012.7
20260507080358 42 247 0.0 0.0 0.00 0.00 0.00 10 1012.5
20260507075858 42 225 0.0 0.0 0.00 0.00 0.00 10 1012.4
20260507075358 42 225 0.0 0.0 0.00 0.00 0.00 10 1012.5
20260507074858 42 225 0.0 0.0 0.00 0.00 0.00 10 1012.4
20260507074358 42 247 0.0 0.0 0.00 0.00 0.00 10 1012.5
20260507073858 42 247 0.0 0.0 0.00 0.00 0.00 10 1012.5
20260507073358 42 270 0.0 0.0 0.00 0.00 0.00 10 1012.2
20260507072858 42 247 0.0 0.0 0.00 0.00 0.00 10 1012.2
20260507072358 42 247 0.0 0.0 0.00 0.00 0.00 10 1012.2
20260507071858 42 225 0.0 0.0 0.00 0.00 0.00 10 1012.2
20260507071358 42 247 0.0 0.0 0.00 0.00 0.00 10 1012.3
20260507070858 42 247 0.0 0.0 0.00 0.00 0.00 10 1012.1
20260507070358 42 247 0.0 0.0 0.00 0.00 0.00 10 1012.0
20260507065858 42 247 0.0 0.0 0.00 0.00 0.00 10 1011.9
20260507065358 42 247 0.0 0.0 0.00 0.00 0.00 10 1012.1
20260507064858 42 247 0.0 0.0 0.00 0.00 0.00 10 1012.0
20260507064358 42 247 0.0 0.0 0.00 0.00 0.00 10 1012.0
20260507063858 42 247 0.0 0.0 0.00 0.00 0.00 10 1011.9
20260507063358 43 225 0.0 0.0 0.00 0.00 0.00 10 1011.8
20260507062858 43 202 0.0 0.0 0.00 0.00 0.00 10 1011.9
20260507062358 42 225 0.0 0.0 0.00 0.00 0.00 10 1011.9
20260507061358 42 247 0.0 0.0 0.00 0.00 0.00 10 1011.7
20260507060858 42 247 0.0 0.0 0.00 0.00 0.00 10 1011.6
20260507060358 42 247 0.0 0.0 0.00 0.00 0.00 10 1011.6
20260507055858 42 247 0.0 0.0 0.00 0.00 0.00 10 1011.5
20260507055358 42 225 0.0 0.0 0.00 0.00 0.00 10 1011.6
20260507054858 42 225 0.0 0.0 0.00 0.00 0.00 10 1011.5
20260507053858 42 247 0.0 0.0 0.00 0.00 0.00 10 1011.4
20260507053358 42 270 0.0 0.0 0.00 0.00 0.00 10 1011.3
20260507052858 42 247 0.0 0.0 0.00 0.00 0.00 10 1011.3
20260507052358 42 337 0.0 0.0 0.00 0.00 0.00 10 1011.5
20260507051859 42 225 0.0 0.0 0.00 0.00 0.00 10 1011.2
20260507051358 41 247 0.0 0.0 0.00 0.00 0.00 10 1011.3
20260507050858 41 247 0.0 0.0 0.00 0.00 0.00 10 1011.2
20260507050358 41 247 0.0 0.0 0.00 0.00 0.00 10 1011.1
20260507045858 41 270 0.0 0.0 0.00 0.00 0.00 10 1011.2
20260507045358 41 225 0.0 0.0 0.00 0.00 0.00 10 1011.1
20260507044858 41 225 0.0 0.0 0.00 0.00 0.00 10 1011.0
20260507044358 41 225 0.0 0.0 0.00 0.00 0.00 10 1010.9
20260507043858 41 247 0.0 0.0 0.00 0.00 0.00 10 1010.8
20260507043358 41 247 0.0 0.0 0.00 0.00 0.00 10 1010.7
20260507042858 41 247 0.0 0.0 0.00 0.00 0.00 10 1010.7
20260507042358 41 247 0.0 0.0 0.00 0.00 0.00 10 1010.6
20260507041858 41 247 0.0 0.0 0.00 0.00 0.00 10 1010.7
20260507041358 41 247 0.0 0.0 0.00 0.00 0.00 10 1010.6
20260507040858 41 247 0.0 0.0 0.00 0.00 0.00 10 1010.6
20260507040358 41 247 0.0 0.0 0.00 0.00 0.00 10 1010.5
20260507035858 41 225 0.0 0.0 0.00 0.00 0.00 10 1010.6
20260507035358 41 270 0.0 0.0 0.00 0.00 0.00 10 1010.5
20260507034858 41 247 0.0 0.0 0.00 0.00 0.00 10 1010.3
20260507034358 41 225 0.0 0.0 0.00 0.00 0.00 10 1010.4
20260507033858 41 270 0.0 0.0 0.00 0.00 0.00 10 1010.4
20260507033358 41 247 0.0 0.0 0.00 0.00 0.00 10 1010.3
20260507032358 41 247 0.0 0.0 0.00 0.00 0.00 10 1010.4
20260507031858 41 247 0.0 0.0 0.00 0.00 0.00 10 1010.2
20260507031358 41 292 0.0 0.0 0.00 0.00 0.00 10 1010.3
20260507030858 41 270 0.0 0.0 0.00 0.00 0.00 10 1010.2
20260507030358 41 270 0.0 0.0 0.00 0.00 0.00 10 1010.4
20260507025858 41 270 0.0 0.0 0.00 0.00 0.00 10 1010.3
20260507025358 41 247 0.0 0.0 0.00 0.00 0.00 10 1010.4
20260507024858 41 270 0.0 0.0 0.00 0.00 0.00 10 1010.4
20260507024358 41 225 0.0 0.0 0.00 0.00 0.00 10 1010.2
20260507023859 41 247 0.0 0.0 0.00 0.00 0.00 10 1010.3
20260507023358 41 247 0.0 0.0 0.00 0.00 0.00 10 1010.3
20260507022858 41 247 0.0 0.0 0.00 0.00 0.00 10 1010.3
20260507022358 41 225 0.0 0.0 0.00 0.00 0.00 10 1010.3
20260507021858 41 225 0.0 0.0 0.00 0.00 0.00 10 1010.2
20260507021358 41 225 0.0 0.0 0.00 0.00 0.00 10 1010.2
20260507020858 41 247 0.0 0.0 0.00 0.00 0.00 10 1010.1
20260507020358 41 247 0.0 0.0 0.00 0.00 0.00 10 1010.1
20260507015858 41 247 0.0 0.0 0.00 0.00 0.00 10 1010.1
20260507015358 41 247 0.0 0.0 0.00 0.00 0.00 10 1010.0
20260507014858 40 247 0.0 0.0 0.00 0.00 0.00 10 1010.0
20260507014358 40 247 0.0 0.0 0.00 0.00 0.00 10 1010.0
20260507013858 40 270 0.0 0.0 0.00 0.00 0.00 10 1010.0
20260507013359 40 247 0.0 0.0 0.00 0.00 0.00 10 1010.0
20260507012859 40 225 0.0 0.0 0.00 0.00 0.00 10 1009.9
20260507012359 40 225 0.0 0.0 0.00 0.00 0.00 10 1010.1
20260507011858 40 225 0.0 0.0 0.00 0.00 0.00 10 1009.9
20260507011359 40 225 0.0 0.0 0.00 0.00 0.00 10 1009.8
20260507010859 40 247 0.0 0.0 0.00 0.00 0.00 10 1009.8
20260507010359 40 270 0.0 0.0 0.00 0.00 0.00 10 1009.8
20260507005859 40 247 0.0 0.0 0.00 0.00 0.00 10 1009.9
20260507005359 40 247 0.0 0.0 0.00 0.00 0.00 10 1010.0
20260507004859 41 225 0.0 0.0 0.00 0.00 0.00 10 1010.0
20260507004359 41 225 0.0 0.0 0.00 0.00 0.00 10 1010.0
20260507003859 41 247 0.0 0.0 0.00 0.00 0.00 10 1009.8
20260507003359 41 225 0.0 0.0 0.00 0.00 0.00 10 1009.8
20260507002859 41 247 0.0 0.0 0.00 0.00 0.00 10 1009.9
20260507002359 41 247 0.0 0.0 0.00 0.00 0.00 10 1010.0
20260507001859 41 225 0.0 0.0 0.00 0.00 0.00 10 1010.0
20260507001359 41 247 0.0 0.0 0.00 0.00 0.00 10 1009.9
20260507000859 41 247 0.0 0.0 0.00 0.00 0.00 10 1009.9
20260507000359 41 247 0.0 0.0 0.00 0.00 0.00 10 1010.0
20260506235859 41 247 0.0 0.0 0.00 0.00 0.00 10 1010.0
20260506235359 41 247 0.0 0.0 0.00 0.00 0.00 10 1010.0
20260506234859 41 270 0.0 0.0 0.00 0.00 0.00 10 1010.0
20260506234359 41 247 0.0 0.0 0.00 0.00 0.00 10 1010.0
20260506233859 41 247 0.0 0.0 0.00 0.00 0.00 10 1010.0
20260506233359 41 247 0.0 0.0 0.00 0.00 0.00 10 1010.1
20260506232859 41 247 0.0 0.0 0.00 0.00 0.00 10 1009.9
20260506232359 41 247 0.0 0.0 0.00 0.00 0.00 10 1009.8
20260506231859 41 270 0.0 0.0 0.00 0.00 0.00 10 1009.9
20260506231359 41 247 0.0 0.0 0.00 0.00 0.00 10 1009.9
20260506230859 41 247 0.0 0.0 0.00 0.00 0.00 10 1009.9
20260506230359 41 247 0.0 0.0 0.00 0.00 0.00 10 1009.8
20260506225859 41 247 0.0 0.0 0.00 0.00 0.00 10 1009.8
20260506225359 41 247 0.0 0.0 0.00 0.00 0.00 10 1009.7
20260506224859 41 225 0.0 0.0 0.00 0.00 0.00 10 1009.8
20260506224359 41 247 0.0 0.0 0.00 0.00 0.00 10 1009.7
20260506223859 41 270 0.0 0.0 0.00 0.00 0.00 10 1009.8
20260506223359 41 225 0.0 0.0 0.00 0.00 0.00 10 1009.7
20260506222859 41 247 0.0 0.0 0.00 0.00 0.00 10 1009.6
20260506222359 41 247 0.0 0.0 0.00 0.00 0.00 10 1009.4
20260506221859 41 247 0.0 0.0 0.00 0.00 0.00 10 1009.4
20260506221359 41 225 0.0 0.0 0.00 0.00 0.00 10 1009.6
20260506220859 41 247 0.0 0.0 0.00 0.00 0.00 10 1009.7
20260506220359 41 247 0.0 0.0 0.00 0.00 0.00 10 1009.7
20260506215859 41 247 0.0 0.0 0.00 0.00 0.00 10 1009.5
20260506215359 41 247 0.0 0.0 0.00 0.00 0.00 10 1009.4
20260506214859 41 270 0.0 0.0 0.00 0.00 0.00 10 1009.4
20260506214359 41 247 0.0 0.0 0.00 0.00 0.00 10 1009.5
20260506213859 41 225 0.0 0.0 0.00 0.00 0.00 10 1009.4
20260506213359 41 247 0.0 0.0 0.00 0.00 0.00 10 1009.5
20260506212859 41 247 0.0 0.0 0.00 0.00 0.00 10 1009.5
20260506212359 41 247 0.0 0.0 0.00 0.00 0.00 10 1009.4
20260506211859 41 247 0.0 0.0 0.00 0.00 0.00 10 1009.5
20260506211359 41 247 0.0 0.0 0.00 0.00 0.00 10 1009.5
20260506210859 41 247 0.0 0.0 0.00 0.00 0.00 10 1009.5
20260506205859 41 292 0.0 0.0 0.00 0.00 0.00 10 1009.7
20260506205359 41 247 0.0 0.0 0.00 0.00 0.00 10 1009.6
20260506204359 41 225 0.0 0.0 0.00 0.00 0.00 10 1009.6
20260506203859 41 247 0.0 0.0 0.00 0.00 0.00 10 1009.4
20260506203400 41 225 0.0 0.0 0.00 0.00 0.00 10 1009.4
20260506202859 41 247 0.0 0.0 0.00 0.00 0.00 10 1009.2
20260506202359 41 247 0.0 0.0 0.00 0.00 0.00 10 1009.3
20260506201859 41 247 0.0 0.0 0.00 0.00 0.00 10 1009.1
20260506201359 41 225 0.0 0.0 0.00 0.00 0.00 10 1009.0
20260506200359 41 247 0.0 0.0 0.00 0.00 0.00 10 1009.1
20260506195859 41 225 0.0 0.0 0.00 0.00 0.00 10 1008.9
20260506195359 41 247 0.0 0.0 0.00 0.00 0.00 10 1008.8
20260506194859 41 247 0.0 0.0 0.00 0.00 0.00 10 1009.0
20260506194359 41 247 0.0 0.0 0.00 0.00 0.00 10 1008.9
20260506193859 41 247 0.0 0.0 0.00 0.00 0.00 10 1008.9
20260506193400 41 247 0.0 0.0 0.00 0.00 0.00 10 1008.8
20260506192859 41 247 0.0 0.0 0.00 0.00 0.00 10 1009.0
20260506192359 41 202 0.0 0.0 0.00 0.00 0.00 10 1009.0
20260506191859 41 247 0.0 0.0 0.00 0.00 0.00 10 1009.0
20260506191359 41 247 0.0 0.0 0.00 0.00 0.00 10 1008.9
20260506190859 41 247 0.0 0.0 0.00 0.00 0.00 10 1008.7
20260506190359 41 247 0.0 0.0 0.00 0.00 0.00 10 1008.8
20260506185859 41 180 0.0 0.0 0.00 0.00 0.00 10 1008.8
20260506185359 41 225 0.0 0.0 0.00 0.00 0.00 10 1008.8
20260506184859 42 247 0.0 0.0 0.00 0.00 0.00 10 1008.5
20260506184359 42 247 0.0 0.0 0.00 0.00 0.00 10 1008.5
20260506183859 42 247 0.0 0.0 0.00 0.00 0.00 10 1008.5
20260506183359 42 247 0.0 0.0 0.00 0.00 0.00 10 1008.3
20260506182859 42 270 0.0 0.0 0.00 0.00 0.00 10 1008.3
20260506182359 42 292 0.0 0.0 0.00 0.00 0.00 10 1008.4
20260506181859 43 270 0.0 0.0 0.00 0.00 0.00 10 1008.3
20260506181359 43 225 0.0 0.0 0.00 0.00 0.00 10 1008.3
20260506180859 43 247 0.0 0.0 0.00 0.00 0.00 10 1008.4
20260506180400 43 247 0.0 0.0 0.00 0.00 0.00 10 1008.5
20260506175900 43 247 0.0 0.0 0.00 0.00 0.00 10 1008.5
20260506175400 42 225 0.0 0.0 0.00 0.00 0.00 10 1008.3
20260506174900 42 247 0.0 0.0 0.00 0.00 0.00 10 1008.3
20260506174400 42 247 0.0 0.0 0.00 0.00 0.00 10 1008.0
20260506173900 42 225 0.0 0.0 0.00 0.00 0.00 10 1007.9
20260506173400 43 247 0.0 0.0 0.00 0.00 0.00 10 1008.0
20260506172900 43 247 0.0 0.0 0.00 0.00 0.00 10 1007.7
20260506172400 43 270 0.0 0.0 0.00 0.00 0.00 10 1007.7
20260506171900 43 247 0.0 0.0 0.00 0.00 0.00 10 1007.7
20260506171400 43 225 0.0 0.0 0.00 0.00 0.00 10 1007.6
20260506170900 44 225 0.0 0.0 0.00 0.00 0.00 10 1007.4
20260506165900 45 247 0.0 0.0 0.00 0.00 0.00 10 1007.2
20260506165400 46 270 0.0 0.0 0.00 0.00 0.00 10 1007.1
20260506164900 46 225 0.0 0.0 0.00 0.00 0.00 10 1006.9
20260506164400 46 247 0.0 0.0 0.00 0.00 0.00 10 1007.2
20260506163900 45 270 0.0 0.0 0.00 0.00 0.00 10 1007.0
20260506163400 45 247 0.0 0.0 0.00 0.00 0.00 10 1007.1
20260506162900 45 247 0.0 0.0 0.00 0.00 0.00 10 1007.1
20260506162529 46 180 0.0 0.0 0.00 0.00 0.00 10 1006.9
20260506162400 45 247 0.0 0.0 0.00 0.00 0.00 10 1006.9
20260506161900 46 180 0.0 0.0 0.00 0.00 0.00 10 1006.9
20260506161400 46 247 0.0 0.0 0.00 0.00 0.00 10 1006.9
20260506160900 47 247 0.0 0.0 0.00 0.00 0.00 10 1006.9
20260506160400 47 247 0.0 0.0 0.00 0.00 0.00 10 1006.8
20260506155900 47 225 0.0 0.0 0.00 0.00 0.00 10 1006.8
20260506155400 47 247 0.0 0.0 0.00 0.00 0.00 10 1006.8
20260506154900 46 247 0.0 0.0 0.00 0.00 0.00 10 1006.9
20260506154400 46 247 0.0 0.0 0.00 0.00 0.00 10 1007.0
20260506153900 46 225 0.0 0.0 0.00 0.00 0.00 10 1006.9
20260506153400 48 247 0.0 0.0 0.00 0.00 0.00 10 1006.8
20260506152900 49 247 0.0 0.0 0.00 0.00 0.00 10 1006.8
20260506152400 53 247 0.0 0.0 0.00 0.00 0.00 11 1006.7
20260506151900 57 247 0.0 0.0 0.00 0.00 0.00 13 1006.6
20260506151400 60 247 0.0 0.0 0.00 0.00 0.00 10 1006.4
20260506150900 60 225 0.0 0.0 0.00 0.00 0.00 10 1006.2
20260506145900 58 157 0.0 0.0 0.00 0.00 0.00 10 1006.2
20260506145400 58 157 0.0 0.0 0.00 0.00 0.00 10 1005.9
20260506144900 58 157 0.0 0.0 0.00 0.00 0.00 10 1005.9
20260506144400 57 157 0.0 0.0 0.00 0.00 0.00 10 1005.9
20260506143900 57 157 0.0 0.0 0.00 0.00 0.00 10 1005.9
20260506143400 57 157 0.0 0.0 0.00 0.00 0.00 10 1006.1
20260506142900 57 157 0.0 0.0 0.00 0.00 0.00 10 1005.9
20260506142400 56 157 0.0 0.0 0.00 0.00 0.00 10 1005.8
20260506141900 55 225 0.0 0.0 0.00 0.00 0.00 10 1005.9
20260506141400 55 225 0.0 0.0 0.00 0.00 0.00 10 1005.8
20260506140900 54 157 0.0 0.0 0.00 0.00 0.00 10 1006.0
20260506135900 52 225 0.0 0.0 0.00 0.00 0.00 10 1006.0
20260506134900 51 247 0.0 0.0 0.00 0.00 0.00 10 1006.1
20260506134400 51 247 0.0 0.0 0.00 0.00 0.00 10 1006.0
20260506133900 51 0 0.0 0.0 0.00 0.00 0.00 10 1006.0
20260506133400 50 180 0.0 0.0 0.00 0.00 0.00 10 1006.1
20260506132900 49 180 0.0 0.0 0.00 0.00 0.00 10 1006.3
20260506132400 48 180 0.0 0.0 0.00 0.00 0.00 10 1006.5
20260506131900 48 180 0.0 0.0 0.00 0.00 0.00 10 1006.7
20260506131400 48 180 0.0 0.0 0.00 0.00 0.00 10 1006.7
20260506130900 48 180 0.0 0.0 0.00 0.00 0.00 10 1007.1
20260506130400 50 292 0.0 0.0 0.00 0.00 0.00 10 1007.1
20260506125900 51 270 0.0 0.0 0.00 0.00 0.00 10 1007.1
20260506124900 55 315 0.0 0.0 0.00 0.00 0.00 10 1006.7
20260506124400 56 337 0.0 0.0 0.00 0.00 0.00 15 1006.4
20260506123900 57 0 0.0 0.0 0.00 0.00 0.00 20 1006.3
20260506123400 58 22 0.0 0.0 0.00 0.00 0.00 24 1006.0
20260506122900 59 22 0.0 0.0 0.00 0.00 0.00 28 1005.8
20260506122400 60 22 0.0 0.0 0.00 0.00 0.00 32 1006.0
20260506121900 61 22 0.0 0.0 0.00 0.00 0.00 33 1006.2
20260506121400 62 22 0.0 0.0 0.00 0.00 0.00 36 1006.2
20260506120900 62 22 0.0 0.0 0.00 0.00 0.00 38 1006.3
20260506120400 63 67 0.0 0.0 0.00 0.00 0.00 40 1006.3
20260506115900 64 337 0.0 0.0 0.00 0.00 0.00 39 1006.4
20260506115400 64 45 0.0 0.0 0.00 0.00 0.00 38 1006.3
20260506114900 65 45 0.0 0.0 0.00 0.00 0.00 37 1006.2
20260506114400 64 112 0.0 0.0 0.00 0.00 0.00 37 1006.4